Amsterdam, Netherlands

9:10 AM CET on February 20, 2018 (GMT +0100)
Schiphol

Weather History for EHAM - December, 2013

Change the Weather History Date:

Thursday, December 26, 2013

  Actual Average Record
Temperature  
Mean Temperature 40 °F -  
Max Temperature 45 °F 41 °F 58 °F (2015)
Min Temperature 36 °F 33 °F 21 °F (1996)
Degree Days  
Heating Degree Days 24    
Moisture  
Dew Point 39 °F    
Average Humidity 90    
Maximum Humidity 100    
Minimum Humidity 72    
Precipitation  
Precipitation 0.02 in - - ()
Sea Level Pressure  
Sea Level Pressure 29.40 in    
Wind  
Wind Speed 8 mph ()    
Max Wind Speed 13 mph    
Max Gust Speed -    
Visibility 8.0 miles    
Events Rain    
Averages and records for this station are not official NWS values.
T = Trace of Precipitation, MM = Missing Value Source: Averaged Metar Reports

Daily Weather History Graph

Daily Weather History Graph

Search for Another Location

Airport or City:

Trip Planner

Search our weather history database for the weather conditions in past years. The results will help you decide how hot, cold, wet, or windy it might be!

Date:

Astronomy

Dec. 26, 2013 Rise Set
Actual Time 8:50 AM CET 4:32 PM CET
Civil Twilight 8:08 AM CET 5:14 PM CET
Nautical Twilight 7:24 AM CET 5:58 PM CET
Astronomical Twilight 6:43 AM CET 6:39 PM CET
Moon 1:25 AM CET (12/26) 12:33 PM CET (12/26)
Length of Visible Light 9h 05m
Length of Day
7h 42m
Last Quarter, 41% of the Moon is Illuminated
Dec 26
Last Quarter
Jan 1
New
Jan 8
First Quarter
Jan 16
Full
Jan 24
Last Quarter

Hourly Weather History & Observations

Time (CET) Temp. Windchill Dew Point Humidity Pressure Visibility Wind Dir Wind Speed Gust Speed Precip Events Conditions
12:00 AM 37 °F - 36 °F 95% 29.29 in 10 mi SSE 6.7 mph - -   Scattered Clouds
12:25 AM 37.4 °F 30.8 °F 35.6 °F 93% 29.27 in - SE 9.2 mph - N/A   Clear
12:55 AM 37.4 °F 30.8 °F 37.4 °F 100% 29.27 in - SE 9.2 mph - N/A   Clear
1:00 AM 38 °F - 36 °F 92% 29.29 in 11 mi SE 8.9 mph - -   Partly Cloudy
1:25 AM 37.4 °F 30.3 °F 35.6 °F 93% 29.27 in - SE 10.4 mph - N/A   Clear
1:55 AM 39.2 °F 33.0 °F 37.4 °F 93% 29.27 in - SE 9.2 mph - N/A   Clear
2:00 AM 39 °F - 38 °F 92% 29.31 in 12 mi SE 11.2 mph - -   Mostly Cloudy
2:25 AM 39.2 °F 33.0 °F 37.4 °F 93% 29.30 in 6.2 mi SE 9.2 mph - N/A   Mostly Cloudy
2:55 AM 41.0 °F 36.4 °F 39.2 °F 93% 29.30 in 6.2 mi SE 6.9 mph - N/A   Scattered Clouds
3:00 AM 40 °F - 38 °F 90% 29.31 in 17 mi ESE 6.7 mph - -   Overcast
3:25 AM 39.2 °F 33.6 °F 37.4 °F 93% 29.30 in 6.2 mi ESE 8.1 mph - N/A   Partly Cloudy
3:55 AM 39.2 °F 34.2 °F 37.4 °F 93% 29.30 in 6.2 mi ESE 6.9 mph - N/A   Partly Cloudy
4:00 AM 38 °F - 37 °F 95% 29.31 in 16 mi ESE 6.7 mph - -   Overcast
4:25 AM 39.2 °F 33.0 °F 37.4 °F 93% 29.30 in 6.2 mi ESE 9.2 mph - N/A   Mostly Cloudy
4:55 AM 39.2 °F 33.0 °F 37.4 °F 93% 29.30 in 6.2 mi SE 9.2 mph - N/A   Mostly Cloudy
5:00 AM 40 °F - 38 °F 89% 29.32 in 16 mi SE 8.9 mph - -   Overcast
5:25 AM 41.0 °F 35.8 °F 37.4 °F 87% 29.30 in 6.2 mi SE 8.1 mph - N/A   Scattered Clouds
5:55 AM 41.0 °F 35.8 °F 37.4 °F 87% 29.30 in 6.2 mi SE 8.1 mph - N/A   Scattered Clouds
6:00 AM 40 °F - 38 °F 91% 29.33 in 17 mi SE 8.9 mph - - Rain Light Drizzle
6:25 AM 41.0 °F 35.2 °F 39.2 °F 93% 29.33 in 6.2 mi SE 9.2 mph - N/A Rain Light Rain
6:55 AM 41.0 °F 35.8 °F 39.2 °F 93% 29.33 in 6.2 mi SE 8.1 mph - N/A   Mostly Cloudy
7:00 AM 41 °F - 39 °F 92% 29.34 in 12 mi SE 8.9 mph - - Rain Rain
7:25 AM 41.0 °F 35.8 °F 39.2 °F 93% 29.33 in 6.2 mi SE 8.1 mph - N/A   Mostly Cloudy
7:55 AM 41.0 °F 36.4 °F 39.2 °F 93% 29.33 in 6.2 mi SE 6.9 mph - N/A   Mostly Cloudy
8:00 AM 41 °F - 40 °F 92% 29.34 in 12 mi SE 6.7 mph - -   Overcast
8:25 AM 41.0 °F 37.1 °F 39.2 °F 93% 29.33 in 6.2 mi SSE 5.8 mph - N/A   Mostly Cloudy
8:55 AM 41.0 °F 37.1 °F 39.2 °F 93% 29.33 in 6.2 mi SSE 5.8 mph - N/A Rain Light Rain
9:00 AM 41 °F - 39 °F 90% 29.36 in 12 mi SSE 6.7 mph - - Rain Rain Showers
9:25 AM 41.0 °F 36.4 °F 39.2 °F 93% 29.36 in 6.2 mi SSE 6.9 mph - N/A Rain Light Rain
9:55 AM 41.0 °F 36.4 °F 39.2 °F 93% 29.36 in 4.3 mi SSE 6.9 mph - N/A Rain Light Rain
10:00 AM 41 °F - 40 °F 92% 29.39 in 7 mi SSE 6.7 mph - - Rain Light Rain Showers
10:25 AM 41.0 °F 37.1 °F 39.2 °F 93% 29.39 in 6.2 mi SE 5.8 mph - N/A   Mostly Cloudy
10:55 AM 41.0 °F 37.1 °F 41.0 °F 100% 29.39 in 6.2 mi SSE 5.8 mph - N/A   Mostly Cloudy
11:00 AM 42 °F - 40 °F 90% 29.40 in 7 mi SSE 6.7 mph - - Rain Rain
11:25 AM 42.8 °F 38.6 °F 41.0 °F 93% 29.39 in 6.2 mi SSE 6.9 mph - N/A   Mostly Cloudy
11:55 AM 42.8 °F 39.3 °F 41.0 °F 93% 29.39 in 6.2 mi South 5.8 mph - N/A   Mostly Cloudy
12:00 PM 43 °F - 41 °F 91% 29.41 in 9 mi SSE 6.7 mph - -   Partly Cloudy
12:25 PM 42.8 °F 38.6 °F 41.0 °F 93% 29.39 in 6.2 mi South 6.9 mph - N/A   Mostly Cloudy
12:55 PM 44.6 °F 40.7 °F 42.8 °F 93% 29.39 in 6.2 mi SSW 6.9 mph - N/A   Mostly Cloudy
1:00 PM 44 °F - 42 °F 89% 29.41 in 9 mi SSW 8.9 mph - -   Partly Cloudy
1:25 PM 44.6 °F 39.7 °F 42.8 °F 93% 29.42 in 6.2 mi SSW 9.2 mph - N/A   Mostly Cloudy
1:55 PM 44.6 °F 39.2 °F 42.8 °F 93% 29.42 in 6.2 mi SSW 10.4 mph - N/A   Mostly Cloudy
2:00 PM 44 °F - 42 °F 89% 29.42 in 9 mi SSW 11.2 mph - -   Overcast
2:25 PM 44.6 °F 39.2 °F 42.8 °F 93% 29.42 in 6.2 mi SSW 10.4 mph - N/A   Mostly Cloudy
2:55 PM 44.6 °F 38.8 °F 41.0 °F 87% 29.42 in 6.2 mi SSW 11.5 mph - N/A   Partly Cloudy
3:00 PM 44 °F - 42 °F 88% 29.44 in 8 mi SSW 11.2 mph - -   Mostly Cloudy
3:25 PM 44.6 °F 38.8 °F 42.8 °F 93% 29.42 in 6.2 mi SSW 11.5 mph - N/A   Partly Cloudy
3:55 PM 44.6 °F 39.2 °F 42.8 °F 93% 29.44 in 6.2 mi SW 10.4 mph - N/A   Partly Cloudy
4:00 PM 44 °F - 41 °F 87% 29.47 in 8 mi SW 11.2 mph - -   Mostly Cloudy
4:25 PM 44.6 °F 39.7 °F 41.0 °F 87% 29.44 in 6.2 mi SW 9.2 mph - N/A   Scattered Clouds
4:55 PM 42.8 °F 37.5 °F 39.2 °F 87% 29.47 in 6.2 mi SW 9.2 mph - N/A   Scattered Clouds
5:00 PM 42 °F - 40 °F 88% 29.49 in 19 mi SW 8.9 mph - -   Scattered Clouds
5:25 PM 42.8 °F 38.0 °F 41.0 °F 93% 29.47 in 6.2 mi SW 8.1 mph - N/A   Mostly Cloudy
5:55 PM 42.8 °F 38.0 °F 41.0 °F 93% 29.47 in 6.2 mi SSW 8.1 mph - N/A   Mostly Cloudy
6:00 PM 43 °F - 41 °F 89% 29.49 in 16 mi SSW 6.7 mph - -   Overcast
6:25 PM 42.8 °F 37.5 °F 41.0 °F 93% 29.47 in 6.2 mi SSW 9.2 mph - N/A   Mostly Cloudy
6:55 PM 42.8 °F 37.0 °F 41.0 °F 93% 29.50 in 6.2 mi SSW 10.4 mph - N/A   Mostly Cloudy
7:00 PM 43 °F - 40 °F 85% 29.52 in 25 mi SSW 11.2 mph - -   Partly Cloudy
7:25 PM 42.8 °F 36.6 °F 39.2 °F 87% 29.50 in 6.2 mi SSW 11.5 mph - N/A   Mostly Cloudy
7:55 PM 42.8 °F 36.6 °F 39.2 °F 87% 29.53 in 6.2 mi SW 11.5 mph - N/A   Mostly Cloudy
8:00 PM 42 °F - 39 °F 85% 29.54 in 22 mi SW 8.9 mph - -   Overcast
8:25 PM 41.0 °F 34.3 °F 37.4 °F 87% 29.53 in 6.2 mi SW 11.5 mph - N/A   Scattered Clouds
8:55 PM 42.8 °F 36.2 °F 37.4 °F 81% 29.53 in 6.2 mi SW 12.7 mph - N/A   Mostly Cloudy
9:00 PM 43 °F - 37 °F 72% 29.57 in 28 mi SW 13.4 mph - -   Mostly Cloudy
9:25 PM 41.0 °F 34.3 °F 35.6 °F 81% 29.56 in 6.2 mi SW 11.5 mph - N/A   Scattered Clouds
9:55 PM 39.2 °F 32.5 °F 35.6 °F 87% 29.53 in 6.2 mi South 10.4 mph - N/A   Partly Cloudy
10:00 PM 38 °F - 35 °F 87% 29.56 in 28 mi South 11.2 mph - -   Partly Cloudy
10:25 PM 37.4 °F 30.8 °F 33.8 °F 87% 29.53 in 6.2 mi South 9.2 mph - N/A   Partly Cloudy
10:55 PM 39.2 °F 32.5 °F 35.6 °F 87% 29.53 in 6.2 mi South 10.4 mph - N/A   Partly Cloudy
11:00 PM 39 °F - 36 °F 84% 29.55 in 25 mi South 11.2 mph - -   Partly Cloudy
11:25 PM 39.2 °F 31.6 °F 35.6 °F 87% 29.53 in - South 12.7 mph - N/A   Clear
11:55 PM 39.2 °F 31.6 °F 35.6 °F 87% 29.53 in - South 12.7 mph - N/A   Clear